, MO

(GMT )
Kansas City

Weather History for KMKC - April, 2014

Change the Weather History Date:

Monday, April 21, 2014

  Actual Average Record
Temperature  
Mean Temperature 69 °F -  
Max Temperature 75 °F 65 °F 81 °F (2001)
Min Temperature 62 °F 46 °F 42 °F (2012)
Cooling Degree Days 4    
Growing Degree Days 19 (Base 50)    
Moisture  
Dew Point 54 °F    
Average Humidity 63    
Maximum Humidity 84    
Minimum Humidity 32    
Precipitation  
Precipitation 0.00 in - - ()
Sea Level Pressure  
Sea Level Pressure 29.97 in    
Wind  
Wind Speed 7 mph (WSW)    
Max Wind Speed 13 mph    
Max Gust Speed 23 mph    
Visibility 10 miles    
Events Rain    
Averages and records for this station are not official NWS values.
T = Trace of Precipitation, MM = Missing Value Source: NWS Daily Summary

Daily Weather History Graph

Daily Weather History Graph

Search for Another Location

Airport or City:

Trip Planner

Search our weather history database for the weather conditions in past years. The results will help you decide how hot, cold, wet, or windy it might be!

Date:

Astronomy

Apr. 21, 2014 Rise Set
Actual Time 6:33 AM CDT 8:01 PM CDT
Civil Twilight 6:05 AM CDT 8:29 PM CDT
Nautical Twilight 5:31 AM CDT 9:03 PM CDT
Astronomical Twilight 4:55 AM CDT 9:39 PM CDT
Moon 1:31 AM CDT (4/21) 12:01 PM CDT (4/21)
Length of Visible Light 14h 24m
Length of Day
13h 28m
Waning Gibbous, 57% of the Moon is Illuminated
Apr 21
Waning Gibbous
Apr 22
Last Quarter
Apr 29
New
May 6
First Quarter
May 14
Full

Hourly Weather History & Observations

Time (CDT) Temp. Dew Point Humidity Pressure Visibility Wind Dir Wind Speed Gust Speed Precip Events Conditions
12:54 AM 66.9 °F 54.0 °F 63% 29.98 in 10.0 mi SSW 6.9 mph - N/A   Overcast
1:54 AM 68.0 °F 54.0 °F 61% 29.97 in 10.0 mi SW 5.8 mph - N/A   Overcast
2:54 AM 66.9 °F 55.0 °F 66% 29.97 in 10.0 mi SW 5.8 mph - 0.00 in   Overcast
3:54 AM 66.9 °F 54.0 °F 63% 29.96 in 10.0 mi SW 5.8 mph - N/A   Overcast
4:54 AM 66.0 °F 55.0 °F 68% 29.96 in 10.0 mi SW 6.9 mph - N/A   Overcast
5:54 AM 66.0 °F 55.0 °F 68% 29.96 in 10.0 mi SSW 6.9 mph - N/A   Overcast
6:54 AM 64.0 °F 55.9 °F 75% 29.96 in 10.0 mi SSW 6.9 mph - 0.00 in   Overcast
7:18 AM 64.0 °F 57.0 °F 78% 29.99 in 8.0 mi SSW 3.5 mph - 0.00 in Rain Light Rain
7:39 AM 63.0 °F 57.0 °F 81% 29.98 in 9.0 mi South 8.1 mph - 0.00 in Rain Light Rain
7:54 AM 63.0 °F 57.9 °F 84% 29.97 in 9.0 mi South 9.2 mph - 0.00 in   Overcast
8:41 AM 64.0 °F 57.9 °F 80% 30.00 in 8.0 mi SSW 8.1 mph - N/A   Overcast
8:54 AM 64.0 °F 57.9 °F 80% 29.99 in 6.0 mi SSW 4.6 mph - N/A   Haze
9:54 AM 64.9 °F 59.0 °F 81% 29.98 in 9.0 mi SW 9.2 mph - 0.00 in   Overcast
10:11 AM 68.0 °F 59.0 °F 73% 29.98 in 9.0 mi SSW 9.2 mph - N/A   Mostly Cloudy
10:27 AM 66.9 °F 57.9 °F 73% 29.98 in 10.0 mi SSW 8.1 mph - N/A   Mostly Cloudy
10:54 AM 66.9 °F 57.0 °F 70% 29.97 in 10.0 mi WSW 10.4 mph - N/A   Overcast
11:54 AM 69.1 °F 57.9 °F 68% 29.96 in 10.0 mi Variable 4.6 mph - N/A   Overcast
12:54 PM 71.1 °F 57.9 °F 63% 29.95 in 10.0 mi North - - N/A   Overcast
1:09 PM 72.0 °F 57.9 °F 61% 29.96 in 10.0 mi SSW 3.5 mph - N/A   Mostly Cloudy
1:54 PM 73.0 °F 57.9 °F 59% 29.94 in 10.0 mi Variable 3.5 mph - N/A   Overcast
2:54 PM 71.1 °F 60.1 °F 68% 29.94 in 10.0 mi WNW 3.5 mph - 0.00 in Rain Light Rain
3:54 PM 72.0 °F 59.0 °F 64% 29.94 in 10.0 mi NW 9.2 mph - 0.00 in   Scattered Clouds
4:54 PM 73.0 °F 57.0 °F 57% 29.92 in 10.0 mi NW 9.2 mph - N/A   Partly Cloudy
5:54 PM 75.0 °F 57.0 °F 53% 29.91 in 10.0 mi WNW 8.1 mph - N/A   Partly Cloudy
6:54 PM 73.9 °F 55.9 °F 53% 29.91 in 10.0 mi NNW 8.1 mph - N/A   Mostly Cloudy
7:54 PM 72.0 °F 48.9 °F 44% 29.94 in 10.0 mi North 12.7 mph 23.0 mph N/A   Scattered Clouds
8:54 PM 69.1 °F 41.0 °F 36% 29.99 in 10.0 mi North 9.2 mph - N/A   Scattered Clouds
9:54 PM 66.0 °F 36.0 °F 33% 30.01 in 10.0 mi NNW 4.6 mph - N/A   Clear
10:54 PM 64.9 °F 34.0 °F 32% 30.01 in 10.0 mi NNW 4.6 mph - N/A   Clear
11:54 PM 62.1 °F 33.1 °F 34% 30.02 in 10.0 mi NNW 4.6 mph - N/A   Clear